This demonstration page uses our WeatherBlox Daily Observations layout. Learn more.

40.92945, -100.16068

Hourly Observations for February 26, 2019

Temp ( °F °C ) Dew Point ( °F °C ) Humidity (%) Winds ( mph kmh ) Pressure ( in mb ) Visibility ( mi km ) Precip ( " mm )
12:15 am 00:15 Cloudy 4 -15.5 -2 -19 75 75 NE 12 19 30.56 1035 10 16.0934 0 0
12:35 am 00:35 Cloudy 4 -15.6 -2 -19 75 75 NE 12 19 30.56 1035 10 16.0934 0 0
12:55 am 00:55 Cloudy 4 -15.8 -2 -19.1 76 76 NE 13 20 30.57 1035 10 16.0934 0 0
1:15 am 01:15 Cloudy 4 -15.8 -2 -19 77 77 NE 12 19 30.57 1035 10 16.0934 0 0
1:35 am 01:35 Cloudy 3 -16 -2 -19 78 78 NE 13 20 30.57 1035 10 16.0934 0 0
1:55 am 01:55 Cloudy 3 -16 -2 -19.1 77 77 NNE 10 17 30.58 1036 10 16.0934 0 0
2:15 am 02:15 Cloudy 3 -16 -2 -19 78 78 NE 12 19 30.56 1035 10 16.0934 0 0
2:35 am 02:35 Cloudy 3 -16 -2 -19 78 78 NE 9 15 30.56 1035 10 16.0934 0 0
2:55 am 02:55 Cloudy 3 -16.1 -2 -19.1 78 78 NE 10 17 30.55 1035 10 16.0934 0 0
3:15 am 03:15 Cloudy 3 -16.2 -3 -19.3 77 77 NE 9 15 30.54 1034 10 16.0934 0 0
3:35 am 03:35 Cloudy 3 -16.2 -3 -19.3 77 77 NE 10 17 30.54 1034 10 16.0934 0 0
3:55 am 03:55 Cloudy 3 -16.2 -3 -19.3 77 77 NE 10 17 30.54 1034 10 16.0934 0 0
4:15 am 04:15 Cloudy 3 -16.1 -3 -19.2 77 77 NNE 9 15 30.54 1034 10 16.0934 0 0
4:35 am 04:35 Cloudy 3 -16.1 -2 -19.1 78 78 NNE 10 17 30.54 1034 10 16.0934 0 0
4:55 am 04:55 Cloudy 3 -16 -2 -19.1 77 77 N 10 17 30.56 1035 10 16.0934 0 0
5:15 am 05:15 Cloudy 3 -16 -2 -19.1 77 77 NNE 10 17 30.55 1034 10 16.0934 0 0
5:35 am 05:35 Cloudy 3 -16 -2 -19.1 77 77 NNE 9 15 30.54 1034 10 16.0934 0 0
5:55 am 05:55 Cloudy 3 -16 -2 -19 78 78 NE 10 17 30.51 1033 10 16.0934 0 0
6:15 am 06:15 Cloudy 3 -16.1 -2 -19.1 78 78 ENE 10 17 30.51 1033 10 16.0934 0 0
6:35 am 06:35 Cloudy 3 -16.1 -2 -19 79 79 NE 9 15 30.53 1034 10 16.0934 0 0
6:55 am 06:55 Cloudy 3 -16.1 -2 -19 79 79 NE 7 11 30.52 1034 10 16.0934 0 0
7:15 am 07:15 Cloudy 3 -16.1 -2 -19.1 78 78 NNE 7 11 30.53 1034 10 16.0934 0 0
7:35 am 07:35 Cloudy 3 -16.1 -2 -19 79 79 ENE 8 13 30.5 1033 10 16.0934 0 0
7:55 am 07:55 Cloudy 3 -16 -2 -19 78 78 E 9 15 30.49 1032 10 16.0934 0 0
8:15 am 08:15 Cloudy 3 -16 -2 -19 78 78 NE 5 7 30.5 1033 10 16.0934 0 0
8:35 am 08:35 Cloudy 3 -16 -2 -19.1 77 77 N 6 9 30.53 1034 10 16.0934 0 0
8:55 am 08:55 Cloudy with Light Snow 3 -16 -2 -19.1 77 77 NE 6 9 30.52 1033 10 16.0934 0 0
9:15 am 09:15 Cloudy with Light Snow 4 -15.8 -2 -19.1 76 76 ENE 5 7 30.52 1033 5 8.0467 0 0
9:35 am 09:35 Cloudy with Light Snow 4 -15.5 -2 -18.9 75 75 ENE 5 7 30.5 1033 10 16.0934 0 0
9:55 am 09:55 Cloudy with Light Snow 4 -15.4 -2 -18.7 76 76 E 6 9 30.49 1033 10 16.0934 0 0
10:15 am 10:15 Cloudy with Light Snow 5 -15 -1 -18.6 74 74 E 6 9 30.48 1032 10 16.0934 0 0
10:35 am 10:35 Cloudy with Light Snow 5 -14.8 -1 -18.6 73 73 NE 3 6 30.48 1032 10 16.0934 0 0
10:55 am 10:55 Cloudy with Light Snow 6 -14.6 -1 -18.5 72 72 NE 5 7 30.47 1032 7 11.26538 0 0
11:15 am 11:15 Cloudy with Light Snow 6 -14.3 -1 -18.3 72 72 ENE 6 9 30.46 1031 5 8.0467 0 0
11:35 am 11:35 Cloudy with Light Snow 7 -14 0 -17.9 73 73 ENE 5 7 30.47 1032 5 8.0467 0 0
11:55 am 11:55 Cloudy with Light Snow 7 -13.7 0 -17.6 73 73 ENE 3 6 30.45 1031 3 4.82802 0 0
12:15 pm 12:15 Cloudy with Light Snow 8 -13.5 1 -17.4 73 73 ENE 3 6 30.44 1031 7 11.26538 0 0
12:35 pm 12:35 Cloudy with Light Snow 8 -13.1 1 -17 73 73 ESE 3 6 30.42 1030 4 6.43736 0 0
12:55 pm 12:55 Cloudy with Light Snow 9 -12.8 2 -16.6 73 73 SSE 3 6 30.39 1029 3 4.82802 0 0
1:15 pm 13:15 Cloudy with Light Snow 9 -12.9 2 -16.7 73 73 Calm 30.39 1029 2.5 4.02335 0 0
1:35 pm 13:35 Cloudy with Light Snow 10 -12.5 3 -16.2 74 74 Calm 30.38 1029 3 4.82802 0 0
1:55 pm 13:55 Mostly Cloudy with Haze 10 -12.4 3 -16 75 75 ESE 5 7 30.37 1028 5 8.0467 0 0
2:15 pm 14:15 Partly Cloudy 9 -12.6 3 -16.1 75 75 NE 5 7 30.37 1028 7 11.26538 0 0
2:35 pm 14:35 Partly Cloudy with Scattered Snow Showers 10 -12.5 3 -16 75 75 ENE 5 7 30.37 1028 5 8.0467 0 0
2:55 pm 14:55 Sunny 10 -12.3 4 -15.8 75 75 ENE 6 9 30.36 1028 7 11.26538 0 0
3:15 pm 15:15 Hazy 10 -12.2 4 -15.8 75 75 ENE 5 7 30.36 1028 5 8.0467 0 0
3:35 pm 15:35 Hazy 10 -12.2 4 -15.8 75 75 ENE 5 7 30.36 1028 4 6.43736 0 0
3:55 pm 15:55 Sunny 10 -12.1 4 -15.6 75 75 ENE 7 11 30.34 1028 10 16.0934 0 0
4:15 pm 16:15 Sunny 10 -12.1 4 -15.7 75 75 ENE 6 9 30.35 1028 10 16.0934 0 0
4:35 pm 16:35 Sunny 10 -12.1 4 -15.7 75 75 ENE 6 9 30.34 1028 10 16.0934 0 0
4:55 pm 16:55 Sunny 10 -12.1 4 -15.6 75 75 ENE 5 7 30.35 1028 10 16.0934 0 0
5:15 pm 17:15 Sunny 10 -12.1 4 -15.7 75 75 ENE 5 7 30.35 1028 10 16.0934 0 0
5:35 pm 17:35 Sunny 10 -12.1 4 -15.7 75 75 E 6 9 30.35 1028 10 16.0934 0 0
5:55 pm 17:55 Sunny 10 -12.2 4 -15.7 75 75 E 5 7 30.36 1028 10 16.0934 0 0
6:15 pm 18:15 Sunny 9 -12.6 3 -15.9 77 77 E 7 11 30.36 1028 10 16.0934 0 0
6:35 pm 18:35 Clear 9 -13 3 -16.1 78 78 ENE 6 9 30.37 1029 10 16.0934 0 0
6:55 pm 18:55 Clear 8 -13.3 2 -16.5 77 77 ENE 6 9 30.38 1029 10 16.0934 0 0
7:15 pm 19:15 Clear 7 -13.8 2 -16.8 78 78 NE 5 7 30.41 1030 10 16.0934 0 0
7:35 pm 19:35 Clear 7 -13.7 2 -16.8 78 78 E 5 7 30.4 1030 10 16.0934 0 0
7:55 pm 19:55 Clear 7 -14 1 -17 78 78 ENE 3 6 30.42 1030 10 16.0934 0 0
8:15 pm 20:15 Clear 5 -15.2 0 -18 79 79 NE 6 9 30.43 1030 10 16.0934 0 0
8:35 pm 20:35 Clear 6 -14.7 1 -17.4 80 80 ENE 3 6 30.42 1030 10 16.0934 0 0
8:55 pm 20:55 Clear 4 -15.8 -1 -18.5 80 80 N 6 9 30.46 1031 10 16.0934 0 0
9:15 pm 21:15 Clear 3 -16 -1 -18.5 81 81 N 5 7 30.46 1031 10 16.0934 0 0
9:35 pm 21:35 Clear 1 -17 -3 -19.5 81 81 N 6 9 30.48 1032 10 16.0934 0 0
9:55 pm 21:55 Clear 1 -17.1 -3 -19.7 80 80 NNW 7 11 30.49 1033 10 16.0934 0 0
10:15 pm 22:15 Clear 0 -17.6 -4 -20.1 81 81 N 7 11 30.5 1033 10 16.0934 0 0
10:35 pm 22:35 Clear 1 -17.2 -3 -19.6 82 82 NNW 7 11 30.5 1033 10 16.0934 0 0
10:55 pm 22:55 Clear 0 -17.9 -5 -20.3 82 82 NNW 6 9 30.5 1033 10 16.0934 0 0
11:15 pm 23:15 Clear 0 -18 -5 -20.5 81 81 NNW 5 7 30.5 1033 10 16.0934 0 0
11:35 pm 23:35 Clear 0 -17.7 -4 -20.2 81 81 WNW 7 11 30.52 1033 10 16.0934 0 0
11:55 pm 23:55 Clear 0 -17.9 -5 -20.3 82 82 NW 8 13 30.52 1034 10 16.0934 0 0

Powered by AerisWeather